Lapse_Rate
6.0 5.6 5.6 5.5 5.6 5.7 5.5 5.6 5.7 5.7 5.7 5.4 5.4 5.3 5.1 5.1 5.2 5.1 5.3 5.4 5.6 5.8 5.8 6.0 5.9 5.6 5.6 5.6 5.7 6.0 6.2 6.3 6.4 6.4 6.4 6.3 6.6 6.5 6.4 6.6 6.7 6.8 7.0
5.8 5.9 5.7 5.6 5.7 5.7 5.7 5.7 5.8 5.7 5.5 5.6 5.6 5.3 5.1 5.2 5.4 5.4 5.4 5.4 5.5 5.6 5.9 5.9 5.7 5.3 5.7 5.6 6.0 6.4 6.3 6.3 6.3 6.2 6.0 6.1 6.0 6.3 6.4 6.4 6.5 6.6 6.7
5.9 6.1 5.9 5.7 5.7 5.8 6.0 6.0 5.9 5.8 5.7 5.8 5.7 5.4 5.2 5.3 5.3 5.4 5.4 5.6 5.6 5.9 5.9 5.7 5.3 5.5 5.5 5.5 6.1 6.0 6.0 6.1 6.0 5.8 5.6 5.5 5.8 5.8 6.2 6.2 6.3 6.3 6.5
5.9 6.1 6.1 5.9 5.7 5.7 6.0 5.9 5.9 6.0 6.0 5.9 5.8 5.3 5.2 5.2 5.5 5.2 5.6 5.7 5.8 5.9 6.0 5.6 5.3 5.5 5.4 5.7 6.2 5.9 5.6 5.6 5.6 5.9 5.6 5.7 5.3 5.6 5.6 5.9 6.1 6.0 6.2
5.9 6.1 6.1 6.0 5.8 5.8 5.9 6.0 5.9 5.8 5.9 5.9 5.8 5.5 5.5 5.5 5.5 5.5 5.4 5.7 6.0 6.1 6.0 5.6 5.4 5.6 5.4 6.0 5.9 5.7 5.6 5.6 5.6 5.6 5.8 5.5 5.3 5.4 5.7 5.9 5.8 5.9 6.0
6.1 6.0 6.1 5.9 5.7 5.8 5.7 5.5 5.7 5.8 5.9 5.9 5.7 5.5 5.6 5.6 5.4 5.5 5.5 5.8 5.8 6.0 6.1 5.7 5.7 5.6 5.4 5.9 5.8 5.7 5.4 5.4 5.4 5.6 5.9 5.6 5.7 5.4 5.3 5.7 5.7 5.9 5.8
6.1 6.0 5.9 5.6 5.4 5.4 5.3 5.5 5.6 5.5 5.8 5.9 5.8 5.5 5.3 5.2 5.2 5.4 5.7 5.8 5.9 6.1 6.0 5.7 5.6 5.6 5.3 5.4 5.9 5.6 5.5 5.5 5.5 5.6 5.7 5.9 5.9 5.7 5.2 5.3 5.5 5.8 5.8
5.9 5.9 5.8 5.5 5.0 5.4 5.4 5.6 5.5 5.4 5.6 5.8 5.8 5.6 5.1 5.2 5.1 5.2 5.6 5.8 6.0 6.0 5.9 5.5 5.4 5.4 5.4 5.5 5.9 5.7 5.6 5.5 5.7 5.8 5.6 5.7 5.8 5.7 5.3 5.4 5.2 5.5 5.9
5.9 5.7 5.5 5.4 5.3 5.4 5.5 5.3 5.3 5.4 5.5 5.7 5.6 5.6 5.3 5.3 4.9 4.8 5.5 5.8 5.8 5.8 5.5 5.5 5.5 5.5 5.5 5.8 5.7 5.9 5.7 5.5 5.9 5.7 5.8 5.3 5.8 5.8 5.3 5.3 5.2 5.5 5.9
5.7 5.4 5.6 5.3 5.4 5.4 5.4 5.4 5.2 5.2 5.2 5.3 5.3 5.4 5.3 5.1 5.2 4.7 5.4 5.6 5.7 5.7 5.3 5.9 5.7 5.4 5.7 5.6 5.5 5.8 5.7 5.3 5.7 5.6 5.9 5.8 5.8 5.7 5.3 5.5 5.5 5.6 5.9
5.7 5.6 5.5 5.4 5.4 5.6 5.6 5.2 5.3 5.1 5.0 5.0 5.1 5.2 5.1 5.2 5.5 5.6 5.6 5.4 5.4 5.6 5.7 5.6 5.4 5.3 5.4 5.4 5.5 6.1 5.7 5.9 5.8 5.8 6.0 6.1 5.9 5.7 5.7 5.8 5.5 5.5 5.5
5.7 5.6 5.5 5.5 5.5 5.4 5.3 5.2 4.9 5.0 4.8 4.9 5.1 5.0 5.2 5.1 5.3 5.7 5.8 5.5 5.5 5.8 5.6 5.3 5.3 5.4 5.3 5.2 5.3 5.6 5.7 5.7 5.5 5.8 5.9 5.9 5.9 5.6 5.7 5.5 5.4 5.5 5.5
5.5 5.5 5.4 5.4 5.3 5.5 5.3 4.9 4.5 4.6 5.1 5.1 5.2 5.2 5.0 5.0 5.5 5.7 5.9 5.6 5.9 5.7 5.5 5.1 5.7 5.5 5.6 5.6 5.8 5.7 6.1 5.6 5.7 5.9 5.8 5.7 5.8 5.3 5.3 5.2 5.3 5.4 5.4
5.5 5.6 5.5 5.3 5.3 5.3 5.2 5.0 5.2 5.0 5.1 5.2 5.2 4.9 4.9 5.2 5.8 5.9 6.1 5.9 6.1 5.6 5.3 5.8 5.6 5.5 5.5 5.7 5.3 6.1 5.8 5.7 5.8 6.0 5.8 5.6 5.5 5.3 5.2 5.1 5.0 5.3 5.4
5.7 5.9 5.7 5.2 5.3 5.5 5.5 5.3 5.3 5.3 4.9 5.1 5.2 4.8 4.9 5.2 5.6 6.1 6.1 6.0 5.9 5.4 5.6 5.8 5.4 5.7 5.6 6.0 5.9 6.2 6.0 5.8 6.1 5.8 5.9 5.7 5.3 5.1 5.0 5.0 5.0 5.0 5.2
5.5 5.2 5.4 5.3 5.4 5.6 5.6 5.6 5.5 5.7 5.5 5.4 4.9 4.8 4.8 5.0 5.5 6.0 6.0 6.1 5.8 5.8 5.7 5.9 5.7 5.5 5.9 6.2 6.3 6.0 6.0 6.1 6.0 5.6 5.9 5.8 5.4 5.3 5.2 5.1 5.2 5.1 5.0
5.3 5.4 5.3 5.3 5.5 5.5 5.5 5.6 5.7 5.6 5.3 5.2 4.9 5.0 5.2 5.1 5.7 6.0 6.0 5.7 5.9 6.1 5.8 5.9 5.6 5.6 5.5 5.8 6.0 6.1 6.2 6.3 6.2 5.6 5.6 5.7 5.4 5.3 5.3 5.1 5.2 5.3 5.3
5.2 4.8 4.9 5.2 5.3 5.4 5.4 5.4 5.6 5.4 5.1 4.8 4.8 5.0 5.0 5.2 5.7 6.0 6.1 5.8 5.5 5.9 6.1 6.1 5.9 5.6 5.3 5.4 5.7 6.0 6.2 6.2 6.2 6.6 5.7 5.4 5.5 5.4 5.3 5.4 5.3 5.3 5.3
4.9 5.0 4.7 5.1 5.2 5.3 5.4 5.4 5.7 5.5 5.2 4.9 4.7 4.7 5.4 5.7 5.9 6.2 5.8 5.8 6.0 6.0 6.0 5.8 5.5 5.5 5.7 5.5 5.7 5.9 6.2 6.1 6.3 6.5 6.2 6.0 5.9 5.6 5.4 5.4 5.6 5.5 5.5
4.8 5.0 5.1 5.2 5.3 5.2 5.2 5.6 5.5 5.4 5.1 5.2 5.3 5.4 5.6 5.8 5.8 5.9 5.7 6.2 6.5 6.4 5.8 6.0 6.4 6.0 5.8 5.9 6.1 5.8 6.1 6.4 6.3 6.1 5.9 5.9 6.2 6.1 5.7 5.5 5.6 5.7 5.7
5.4 5.5 5.3 5.2 5.2 5.3 5.6 5.7 5.5 5.5 5.5 5.4 5.5 5.8 6.2 6.3 6.2 5.5 5.8 6.0 6.6 6.6 6.1 6.3 6.4 6.5 5.9 6.0 6.7 6.3 6.1 6.3 6.9 6.5 6.0 6.2 6.2 6.4 6.1 5.6 5.4 5.5 5.5
5.6 5.4 5.4 5.3 5.1 5.4 5.5 5.1 5.1 5.2 5.2 5.1 5.3 5.4 5.7 6.3 6.0 5.9 5.8 5.8 6.5 6.7 6.1 6.6 6.4 6.5 5.9 5.8 6.4 6.8 6.4 6.3 5.9 6.4 6.2 6.2 6.2 6.2 6.2 6.0 5.8 5.7 5.5
5.6 5.5 5.5 5.6 5.6 5.6 5.4 5.4 5.4 5.2 5.1 5.4 5.5 5.5 5.6 6.0 5.8 5.8 5.9 5.9 6.4 6.5 6.3 6.3 6.9 6.3 6.1 5.8 5.9 6.4 6.7 6.4 6.3 5.9 6.4 6.5 6.3 5.9 6.1 5.8 5.9 5.8 5.7
5.6 5.7 5.6 5.5 5.5 5.6 5.5 5.4 5.5 5.5 5.2 5.3 5.4 5.3 5.6 5.8 5.8 5.8 5.8 5.9 6.3 6.4 6.2 6.0 6.4 6.5 6.5 6.3 6.0 6.0 5.7 6.0 6.2 5.9 5.9 6.4 6.5 6.2 5.9 5.7 5.7 5.7 5.8
5.6 5.8 5.8 5.7 5.7 5.7 5.6 5.2 5.2 5.4 5.5 5.6 5.4 5.6 6.0 5.9 6.1 6.0 5.9 5.8 6.1 6.2 6.4 6.2 6.1 6.6 6.7 6.3 6.0 5.9 6.0 5.9 6.0 5.8 5.6 6.4 6.4 6.2 6.1 5.7 5.8 5.6 5.7
5.8 6.0 6.0 5.9 5.8 5.8 5.7 5.5 5.1 5.1 5.4 5.6 5.7 6.1 6.1 6.1 6.1 6.1 6.3 6.3 6.3 6.2 6.4 6.4 6.3 6.3 6.4 6.4 6.1 6.1 6.2 6.0 5.8 5.4 5.6 5.8 6.1 6.1 6.2 5.9 5.6 5.7 5.7
Wind_Speed
6 14 17 17 18 17 15 17 17 17 18 18 19 20 19 18 18 16 16 16 15 13 11 10 8 6 6 8 10 8 8 12 12 11 9 11 12 14 14 17 16 18 19
11 15 18 17 18 18 16 16 16 16 17 17 18 18 16 15 15 13 12 12 13 10 9 8 7 7 6 7 9 9 12 11 10 11 10 7 9 8 14 14 15 17 20
10 15 16 18 19 18 18 17 17 17 16 16 16 15 14 12 11 12 10 10 9 9 7 6 7 7 7 8 7 11 7 7 8 10 12 8 8 6 11 14 16 18 19
14 12 13 17 18 20 19 16 17 16 15 14 15 14 13 11 10 10 10 11 9 8 6 6 6 7 8 7 8 10 5 3 5 5 5 5 3 2 6 15 13 16 20
11 13 15 18 18 20 19 17 16 15 14 13 14 13 13 12 11 11 10 10 9 7 7 7 6 7 8 8 12 12 7 7 5 4 3 4 4 1 8 13 10 14 17
11 14 17 18 18 18 20 19 15 15 14 15 17 15 15 13 10 10 10 10 10 7 5 6 6 6 6 8 13 11 4 5 3 5 1 0 1 4 4 13 12 13 16
9 14 17 19 19 18 18 18 17 15 16 16 16 16 12 12 9 10 10 9 9 7 6 4 5 5 5 9 12 12 10 11 3 4 5 6 4 4 7 6 11 16 16
12 13 14 18 18 18 16 16 15 14 13 15 16 13 11 11 9 10 12 10 8 7 5 4 4 5 1 2 3 12 16 14 6 1 3 5 7 7 6 8 10 12 16
11 10 9 12 16 17 14 12 12 11 11 11 12 10 9 9 8 8 9 8 6 6 6 7 5 2 3 3 1 5 11 15 7 8 5 6 3 3 7 8 11 12 16
7 6 7 7 12 11 11 12 12 12 12 11 8 7 6 7 6 5 6 5 7 7 7 7 3 3 4 5 3 7 7 6 10 10 8 4 2 4 8 8 10 11 14
5 6 7 7 9 10 8 10 11 11 11 9 8 7 4 4 2 2 4 6 7 8 7 6 5 2 13 12 14 16 10 11 9 8 9 9 10 9 13 12 12 13 14
8 7 7 7 8 9 8 8 8 7 5 9 6 5 4 2 3 2 4 8 10 9 8 5 5 10 13 5 20 17 10 5 8 6 6 5 12 12 17 16 16 14 14
10 6 7 7 9 9 7 8 6 5 5 6 5 4 4 1 3 3 7 10 11 9 4 2 10 13 10 5 18 10 11 10 7 3 5 12 10 15 16 16 15 14 15
9 7 7 6 7 8 8 6 5 5 7 6 5 4 2 2 3 5 5 7 7 4 2 4 11 6 13 11 13 12 10 11 6 7 7 8 16 18 14 19 17 16 16
11 10 9 8 7 6 5 6 6 5 4 5 5 3 4 5 3 5 7 7 9 5 6 3 8 7 5 6 12 11 14 13 9 7 8 11 16 18 17 17 17 18 18
12 12 10 10 7 7 4 5 4 4 7 3 2 2 8 9 7 6 3 4 2 8 12 13 4 2 2 1 5 11 9 9 7 7 10 13 18 19 16 16 16 17 18
13 12 11 10 8 6 6 5 5 7 5 3 4 6 7 5 7 9 4 3 8 14 14 8 4 4 1 5 5 6 6 1 6 6 9 13 15 16 15 16 16 16 17
12 13 11 11 10 7 6 5 5 9 5 4 3 4 9 10 11 8 4 2 10 10 9 5 2 2 2 4 2 3 1 5 9 6 5 9 13 12 13 16 15 15 17
12 11 10 9 10 8 6 6 7 9 5 6 4 5 9 10 13 8 2 1 9 7 3 4 2 2 2 2 4 5 4 5 4 8 4 6 8 10 13 17 17 17 17
11 11 10 8 10 8 5 4 3 3 4 7 8 6 8 12 12 8 3 5 4 1 5 3 0 1 2 1 3 5 5 4 6 4 3 5 10 9 13 14 16 15 18
11 11 11 9 9 8 3 4 3 3 2 3 6 9 11 10 10 4 4 3 5 4 4 4 1 1 0 1 3 4 3 3 2 3 6 3 7 11 10 11 11 13 14
13 11 10 10 9 8 5 3 3 3 3 1 3 7 5 9 6 6 5 3 4 4 2 4 3 1 1 1 2 3 1 3 1 3 3 3 1 6 8 11 12 12 12
13 13 12 12 11 8 7 3 2 3 2 2 2 3 3 6 8 7 8 5 3 5 2 3 3 4 3 1 2 3 1 4 1 1 3 3 2 3 5 9 10 13 15
14 12 12 13 11 8 8 5 6 5 4 3 3 2 3 9 8 8 8 7 4 3 3 1 3 3 3 3 2 2 2 3 1 2 2 4 3 4 2 2 5 13 15
15 14 13 13 11 10 8 7 5 4 4 2 2 5 6 5 8 9 8 9 5 3 3 3 3 2 2 2 3 3 1 2 1 2 1 3 3 3 4 4 4 3 15
14 13 12 13 12 10 9 8 8 8 6 4 3 3 3 3 3 5 7 7 6 4 4 4 4 4 3 2 2 3 3 2 1 2 2 4 4 3 3 4 4 9 11
Wind_Direction
155 152 149 142 139 135 129 125 116 112 108 106 105 102 101 104 107 116 124 132 133 132 137 148 153 123 103 104 96 97 91 81 83 79 99 122 130 132 136 133 137 136 133
138 153 149 142 140 139 136 134 124 118 114 110 105 105 111 115 120 123 131 143 132 136 141 153 154 131 125 117 108 103 93 89 95 102 88 82 123 140 138 136 141 142 136
135 143 145 142 144 143 139 140 128 124 120 114 111 115 119 119 124 125 127 120 126 136 143 147 140 134 122 107 115 100 109 134 142 116 109 93 114 173 161 143 145 147 143
136 141 141 142 143 143 139 141 134 130 125 122 118 123 121 127 122 121 125 130 130 121 142 146 135 136 129 128 115 122 125 146 201 142 106 87 51 140 168 144 151 152 149
127 133 143 139 141 146 147 144 139 138 135 131 123 120 121 121 114 115 120 122 111 125 155 134 141 147 131 136 133 141 120 123 74 48 77 84 30 200 150 161 152 159 150
128 137 139 141 142 147 149 150 148 146 143 133 127 124 123 121 113 117 122 116 117 140 138 133 147 145 156 145 146 159 159 235 82 357 230 132 218 7 175 172 179 168 168
132 135 143 145 147 150 148 150 151 153 146 138 137 130 125 119 112 119 112 116 124 147 135 152 175 175 187 147 160 184 196 241 277 265 273 235 213 317 332 197 183 183 169
138 145 149 148 148 148 152 154 152 153 153 146 137 131 125 126 109 121 118 122 137 140 137 209 202 211 254 319 167 186 202 226 236 275 201 216 234 268 282 223 192 186 178
129 124 130 151 155 146 146 147 146 147 151 149 145 126 117 129 113 113 125 128 144 162 169 224 229 273 308 340 272 148 216 233 238 308 271 165 179 223 270 202 200 186 180
138 138 135 133 127 126 142 149 160 172 166 158 170 134 122 120 128 123 123 162 186 199 195 232 249 295 6 91 50 197 206 213 236 281 289 270 316 264 241 209 205 192 183
157 154 163 165 169 172 165 172 172 178 173 169 161 153 108 100 143 136 190 204 218 228 222 245 260 318 95 23 318 302 276 222 234 248 273 279 265 255 234 227 211 198 192
175 178 175 166 164 160 168 170 167 178 154 122 134 125 109 81 24 352 289 252 241 246 246 261 270 74 89 72 286 303 321 304 226 215 243 270 258 237 226 202 205 199 197
181 180 168 159 151 157 162 159 143 169 139 150 155 128 130 300 7 336 270 285 243 249 262 35 77 100 121 177 265 243 278 303 297 299 318 314 228 209 207 201 200 195 198
178 177 169 149 141 162 161 141 158 183 179 162 142 138 86 311 315 298 280 282 254 242 261 78 87 180 172 212 225 249 253 275 289 309 289 279 187 203 201 206 208 204 197
179 178 170 151 151 178 134 149 172 203 194 149 148 158 200 209 250 277 270 261 239 182 224 105 186 187 172 240 215 218 245 276 255 238 264 208 200 212 205 203 206 202 200
179 179 161 156 157 165 155 172 177 189 207 180 173 245 246 271 275 252 301 304 172 197 186 194 121 74 207 249 208 219 233 276 198 218 209 192 208 212 208 204 198 198 194
183 164 169 152 158 166 163 170 179 214 221 218 247 267 252 215 258 279 301 255 145 172 162 187 139 156 86 230 249 239 243 112 145 175 193 191 199 203 202 197 198 199 194
167 169 160 166 165 163 158 176 190 224 224 244 212 262 279 258 249 274 246 174 133 153 153 120 142 174 144 211 167 283 200 142 137 156 253 197 185 187 201 194 196 198 200
165 158 159 159 161 169 171 173 201 228 205 215 210 246 274 271 266 242 216 337 168 142 150 133 212 177 87 43 54 17 351 91 154 151 192 211 196 202 199 193 193 198 200
161 158 160 160 157 171 160 162 205 221 237 198 217 216 258 257 266 202 80 71 86 200 105 98 226 80 134 93 63 67 357 52 109 139 148 220 202 214 212 201 193 203 204
162 158 164 158 164 163 155 154 177 205 216 220 234 243 238 221 220 137 78 54 109 78 94 143 130 8 17 47 84 29 358 9 75 115 156 162 198 197 218 231 218 208 215
167 168 161 161 161 166 170 156 157 155 235 288 264 260 246 199 187 160 119 99 116 128 118 110 148 174 76 104 109 104 248 303 13 91 296 212 139 188 190 214 223 229 227
173 176 168 162 169 173 177 142 95 124 87 235 216 192 238 219 189 169 128 142 161 123 112 130 132 159 134 148 197 141 93 230 276 176 241 277 148 181 204 202 223 232 238
182 176 168 163 173 183 178 171 165 175 162 222 195 215 264 233 201 177 161 160 175 144 158 137 118 170 134 138 87 34 138 163 114 10 326 303 315 280 220 239 275 227 234
178 176 176 170 174 186 180 179 178 187 180 196 209 199 201 214 212 189 174 186 182 182 192 148 159 121 106 136 147 188 106 43 65 143 309 316 303 216 227 215 215 215 217
177 178 178 177 182 187 185 188 191 190 170 188 164 203 186 212 201 205 188 199 190 176 186 175 158 146 150 163 176 156 157 164 185 126 188 256 231 281 221 234 179 206 197